period_start,C,m1,H,J0,J1,J2,J3,J4,J5,JA,JB,JC,JD,JJ,JK,JN,#
2016-06-22 00:04:07,0.00,0.12,0.00,25.57,29.32,31.99,14.09,46.38,994.78,2030.00,3391.97,2951.00,3355.04,600.37,578.50,4.82,0000 0000 0000 0000 000000
2016-06-22 00:09:08,0.01,0.12,0.00,25.57,29.32,31.98,14.00,46.23,994.77,2030.00,3391.31,2950.99,3355.00,599.66,577.84,4.87,0000 0000 0000 0000 000000
2016-06-22 00:14:09,0.01,0.12,0.00,25.56,29.32,31.99,14.00,46.27,994.79,2030.00,3391.01,2950.86,3354.82,600.09,578.14,4.92,0000 0000 0000 0000 000000
2016-06-22 00:19:11,0.04,0.12,0.00,25.56,29.32,31.98,14.07,46.38,994.74,2030.02,3390.83,2950.23,3354.14,600.33,578.64,4.97,0000 0000 0000 0000 000000
2016-06-22 00:24:12,0.01,0.12,0.00,25.57,29.32,31.98,14.02,46.21,994.71,2030.03,3390.08,2950.00,3353.99,599.86,578.12,5.02,0000 0000 0000 0000 000000
2016-06-22 00:29:13,0.00,0.12,0.00,25.56,29.30,31.96,14.02,46.20,994.72,2030.06,3389.99,2949.99,3353.92,599.62,577.82,5.07,0000 0000 0000 0000 000000
2016-06-22 00:34:14,0.02,0.12,0.00,25.55,29.30,31.96,14.02,46.02,994.82,2030.04,3389.46,2949.96,3353.32,599.82,578.18,5.12,0000 0000 0000 0000 000000
2016-06-22 00:39:15,0.02,0.12,0.00,25.55,29.30,31.95,13.99,45.95,994.96,2030.06,3388.99,2949.49,3353.01,599.92,578.24,5.17,0000 0000 0000 0000 000000
2016-06-22 00:44:16,0.03,0.12,0.00,25.55,29.30,31.94,14.04,46.09,994.97,2030.14,3388.40,2949.07,3352.87,600.04,578.46,5.22,0000 0000 0000 0000 000000
2016-06-22 00:49:17,0.03,0.13,0.00,25.55,29.30,31.94,14.02,46.27,994.99,2030.24,3387.98,2949.00,3352.07,599.87,578.14,5.27,0000 0000 0000 0000 000000
2016-06-22 00:54:18,0.03,0.13,0.00,25.55,29.29,31.93,14.01,46.33,994.95,2030.40,3387.53,2948.97,3352.00,600.33,578.66,5.32,0000 0000 0000 0000 000000
2016-06-22 00:59:20,0.04,0.13,0.00,25.55,29.28,31.95,14.01,46.33,995.07,2030.70,3387.01,2948.75,3351.94,599.76,578.24,5.37,0000 0000 0000 0000 000000
2016-06-22 01:04:21,-0.00,0.13,0.00,25.55,29.27,31.94,14.09,46.37,995.13,2030.59,3386.89,2948.09,3351.15,600.25,578.71,5.42,0000 0000 0000 0000 000000
2016-06-22 01:09:22,0.04,0.13,0.00,25.55,29.27,31.94,14.13,46.43,995.13,2030.71,3386.13,2947.99,3350.99,599.97,578.43,5.47,0000 0000 0000 0000 000000
2016-06-22 01:14:23,0.03,0.13,0.00,25.55,29.27,31.94,14.09,46.23,995.14,2030.84,3385.88,2947.74,3350.46,600.18,578.64,5.52,0000 0000 0000 0000 000000
2016-06-22 01:19:24,0.03,0.13,0.00,25.55,29.27,31.93,14.06,46.35,995.15,2030.78,3385.13,2947.11,3350.02,599.82,578.16,5.57,0000 0000 0000 0000 000000
2016-06-22 01:24:26,0.01,0.14,0.00,25.54,29.26,31.93,14.08,46.38,995.16,2030.91,3384.97,2947.01,3349.99,599.82,578.37,5.62,0000 0000 0000 0000 000000
2016-06-22 01:29:27,0.01,0.14,0.00,25.53,29.25,31.91,14.08,46.33,995.17,2030.94,3384.30,2947.00,3349.79,600.24,578.70,5.67,0000 0000 0000 0000 000000
2016-06-22 01:34:28,0.01,0.14,0.00,25.52,29.25,31.90,14.05,46.29,995.31,2030.98,3384.02,2946.98,3349.19,599.95,578.74,5.72,0000 0000 0000 0000 000000
2016-06-22 01:39:29,0.01,0.14,0.00,25.52,29.25,31.90,14.07,46.35,995.49,2030.98,3383.70,2946.85,3349.01,599.94,578.67,5.77,0000 0000 0000 0000 000000
2016-06-22 01:44:30,0.02,0.14,0.00,25.51,29.25,31.90,14.05,46.23,995.60,2030.98,3383.03,2946.18,3348.96,599.88,578.69,5.82,0000 0000 0000 0000 000000
2016-06-22 01:49:32,-0.01,0.14,0.00,25.51,29.24,31.89,14.08,46.17,995.62,2030.96,3383.11,2946.11,3348.97,599.78,578.60,5.87,0000 0000 0000 0000 000000
2016-06-22 01:54:33,-0.00,0.14,0.00,25.51,29.23,31.89,14.00,46.19,995.63,2030.93,3383.13,2946.14,3348.98,599.76,578.57,5.92,0000 0000 0000 0000 000000
2016-06-22 01:59:34,0.00,0.14,0.00,25.51,29.22,31.90,14.04,46.24,995.84,2030.92,3383.13,2946.16,3348.97,600.04,578.88,5.97,0000 0000 0000 0000 000000
2016-06-22 02:04:36,-0.00,0.14,0.00,25.50,29.22,31.89,14.10,46.23,996.07,2030.95,3383.11,2946.26,3348.98,599.82,578.85,6.02,0000 0000 0000 0000 000000
2016-06-22 02:09:36,0.01,0.14,0.00,25.50,29.22,31.89,14.01,45.82,996.09,2030.95,3383.03,2946.13,3348.97,599.81,578.83,6.07,0000 0000 0000 0000 000000
2016-06-22 02:14:37,0.00,0.14,0.00,25.50,29.21,31.89,14.13,46.22,996.11,2030.96,3383.01,2946.07,3348.95,600.15,579.10,6.12,0000 0000 0000 0000 000000
2016-06-22 02:19:38,0.00,0.14,0.00,25.50,29.20,31.88,14.03,45.95,996.11,2030.98,3383.00,2946.09,3348.95,599.85,578.89,6.17,0000 0000 0000 0000 000000
2016-06-22 02:24:40,0.00,0.14,0.00,25.50,29.20,31.87,14.03,46.02,996.12,2030.97,3383.00,2946.04,3348.79,599.98,579.03,6.23,0000 0000 0000 0000 000000
2016-06-22 02:29:41,0.00,0.14,0.00,25.49,29.20,31.87,14.03,45.92,996.13,2030.98,3383.00,2946.05,3348.67,599.93,579.02,6.28,0000 0000 0000 0000 000000
2016-06-22 02:34:42,-0.00,0.14,0.00,25.49,29.18,31.87,14.11,46.01,996.13,2030.98,3383.00,2946.04,3348.82,600.48,579.61,6.33,0000 0000 0000 0000 000000
2016-06-22 02:39:43,-0.00,0.14,0.00,25.47,29.17,31.86,14.10,46.16,996.16,2030.97,3383.00,2946.03,3348.77,600.36,579.48,6.38,0000 0000 0000 0000 000000
2016-06-22 02:44:44,0.00,0.14,0.00,25.48,29.17,31.85,14.10,46.13,996.16,2030.95,3383.00,2946.01,3348.58,600.31,579.40,6.43,0000 0000 0000 0000 000000
2016-06-22 02:49:46,0.00,0.14,0.00,25.47,29.17,31.84,14.01,45.98,996.13,2030.95,3383.00,2946.00,3348.14,599.61,578.79,6.48,0000 0000 0000 0000 000000
2016-06-22 02:54:47,-0.00,0.14,0.00,25.47,29.16,31.84,14.03,46.14,996.14,2030.95,3383.01,2946.00,3348.19,600.39,579.66,6.53,0000 0000 0000 0000 000000
2016-06-22 02:59:48,-0.00,0.14,0.00,25.47,29.15,31.83,14.09,46.11,996.14,2030.92,3383.02,2946.01,3348.19,599.88,579.07,6.58,0000 0000 0000 0000 000000
2016-06-22 03:04:49,0.00,0.14,0.00,25.47,29.15,31.83,14.11,46.35,996.13,2030.94,3383.02,2946.00,3348.24,599.90,579.14,6.63,0000 0000 0000 0000 000000
2016-06-22 03:09:51,-0.01,0.14,0.00,25.45,29.15,31.83,14.09,46.12,996.24,2030.85,3383.04,2946.00,3348.31,600.30,579.55,6.68,0000 0000 0000 0000 000000
2016-06-22 03:14:52,-0.01,0.14,0.00,25.45,29.13,31.83,14.04,46.07,996.43,2030.93,3383.20,2946.02,3348.76,600.07,579.59,6.73,0000 0000 0000 0000 000000
2016-06-22 03:19:54,0.01,0.14,0.00,25.42,29.12,31.82,14.04,46.08,996.52,2030.94,3383.35,2946.03,3348.72,599.67,579.14,6.78,0000 0000 0000 0000 000000
2016-06-22 03:24:55,0.01,0.14,0.00,25.42,29.12,31.81,14.05,46.08,996.59,2030.98,3383.01,2946.04,3348.13,599.90,579.38,6.83,0000 0000 0000 0000 000000
2016-06-22 03:29:56,-0.00,0.14,0.00,25.41,29.11,31.81,14.08,46.00,996.60,2030.96,3383.00,2946.02,3348.22,600.11,579.64,6.88,0000 0000 0000 0000 000000
2016-06-22 03:34:57,-0.01,0.14,0.00,25.40,29.10,31.81,14.09,46.10,996.60,2030.98,3383.00,2946.07,3348.56,600.28,579.79,6.93,0000 0000 0000 0000 000000
2016-06-22 03:39:59,0.01,0.14,0.00,25.37,29.10,31.80,14.04,45.87,996.62,2030.99,3383.01,2946.06,3348.47,599.93,579.63,6.98,0000 0000 0000 0000 000000
2016-06-22 03:45:00,0.01,0.14,0.00,25.36,29.09,31.78,14.00,45.88,996.62,2030.96,3383.01,2946.01,3348.09,599.35,579.08,7.03,0000 0000 0000 0000 000000
2016-06-22 03:50:01,0.00,0.14,0.00,25.35,29.07,31.78,14.05,46.07,996.61,2030.99,3383.02,2946.00,3348.11,599.86,579.68,7.08,0000 0000 0000 0000 000000
2016-06-22 03:55:02,-0.01,0.14,0.00,25.35,29.07,31.78,14.10,46.06,996.88,2030.99,3383.07,2946.06,3348.39,600.08,580.01,7.13,0000 0000 0000 0000 000000
2016-06-22 04:00:03,-0.00,0.14,0.00,25.32,29.06,31.76,13.98,45.69,997.07,2030.99,3383.09,2946.12,3348.73,599.20,579.25,7.18,0000 0000 0000 0000 000000
2016-06-22 04:05:04,0.00,0.14,0.00,25.31,29.05,31.75,14.14,46.01,997.09,2030.99,3383.11,2946.10,3348.68,600.35,580.32,7.23,0000 0000 0000 0000 000000
2016-06-22 04:10:06,-0.00,0.14,0.00,25.29,29.05,31.75,14.01,45.73,997.10,2030.99,3383.13,2946.16,3348.72,599.66,579.92,7.28,0000 0000 0000 0000 000000
2016-06-22 04:15:07,-0.00,0.14,0.00,25.28,29.03,31.75,14.08,46.03,997.15,2030.99,3383.22,2946.30,3348.88,600.04,580.31,7.33,0000 0000 0000 0000 000000
2016-06-22 04:20:08,-0.00,0.14,0.00,25.27,29.02,31.72,14.01,45.98,997.37,2030.99,3383.60,2946.39,3348.94,599.74,580.03,7.38,0000 0000 0000 0000 000000
2016-06-22 04:25:10,-0.00,0.14,0.00,25.26,29.02,31.73,14.08,45.98,997.53,2030.99,3383.53,2946.43,3348.96,600.05,580.46,7.43,0000 0000 0000 0000 000000
2016-06-22 04:30:11,-0.01,0.14,0.00,25.24,29.00,31.71,14.10,46.09,997.54,2030.99,3383.62,2946.45,3348.95,600.27,580.75,7.48,0000 0000 0000 0000 000000
2016-06-22 04:35:12,-0.01,0.14,0.00,25.22,29.00,31.71,14.18,46.22,997.56,2030.99,3383.96,2946.84,3348.99,600.19,580.70,7.53,0000 0000 0000 0000 000000
2016-06-22 04:40:13,0.00,0.14,0.00,25.22,29.00,31.70,14.11,46.16,997.56,2030.99,3383.99,2946.83,3348.99,599.83,580.34,7.58,0000 0000 0000 0000 000000
2016-06-22 04:45:15,0.00,0.14,0.00,25.21,28.98,31.69,14.09,45.92,997.50,2030.99,3383.99,2946.84,3348.99,599.99,580.52,7.63,0000 0000 0000 0000 000000
2016-06-22 04:50:16,-0.00,0.14,0.00,25.20,28.97,31.70,14.13,46.04,997.54,2030.99,3383.99,2946.90,3348.99,600.20,580.71,7.68,0000 0000 0000 0000 000000
2016-06-22 04:55:17,0.00,0.14,0.00,25.18,28.97,31.68,14.13,46.13,997.52,2031.00,3383.99,2946.96,3348.99,600.12,580.73,7.73,0000 0000 0000 0000 000000
2016-06-22 05:00:18,-0.00,0.14,0.00,25.17,28.95,31.67,14.10,45.95,997.57,2031.01,3383.99,2946.98,3349.00,600.24,580.84,7.78,0000 0000 0000 0000 000000
2016-06-22 05:05:20,0.00,0.14,0.00,25.16,28.95,31.66,14.10,46.04,997.57,2031.01,3383.99,2946.99,3349.01,599.79,580.41,7.83,0000 0000 0000 0000 000000
2016-06-22 05:10:21,0.00,0.14,0.00,25.14,28.95,31.65,14.10,46.05,997.57,2031.04,3383.99,2946.98,3349.04,600.04,580.71,7.88,0000 0000 0000 0000 000000
2016-06-22 05:15:22,0.00,0.14,0.00,25.12,28.93,31.66,14.16,46.08,997.57,2031.04,3383.99,2946.99,3349.06,600.05,580.82,7.93,0000 0000 0000 0000 000000
2016-06-22 05:20:23,0.00,0.14,0.00,25.11,28.92,31.65,14.07,45.94,997.58,2031.06,3384.02,2946.99,3349.17,599.82,580.56,7.98,0000 0000 0000 0000 000000
2016-06-22 05:25:25,-0.00,0.14,0.00,25.10,28.92,31.64,14.19,46.23,997.59,2031.05,3384.02,2946.99,3349.11,600.29,580.96,8.03,0000 0000 0000 0000 000000
2016-06-22 05:30:26,0.00,0.14,0.00,25.09,28.91,31.64,14.06,45.89,997.67,2031.09,3384.01,2947.00,3349.18,599.85,580.84,8.08,0000 0000 0000 0000 000000
2016-06-22 05:35:27,0.01,0.14,0.00,25.07,28.90,31.63,14.04,45.73,997.92,2031.19,3384.07,2947.00,3349.57,599.93,580.86,8.13,0000 0000 0000 0000 000000
2016-06-22 05:40:29,0.00,0.14,0.00,25.05,28.90,31.61,14.08,46.05,998.04,2031.25,3384.03,2947.01,3349.67,600.00,581.17,8.18,0000 0000 0000 0000 000000
2016-06-22 05:45:30,-0.01,0.14,0.00,25.03,28.90,31.61,14.06,45.85,998.06,2031.19,3384.04,2947.02,3349.65,599.56,580.86,8.23,0000 0000 0000 0000 000000
2016-06-22 05:50:31,0.01,0.14,0.00,25.02,28.88,31.61,14.14,46.03,998.06,2031.33,3384.09,2947.03,3349.79,600.13,581.40,8.28,0000 0000 0000 0000 000000
2016-06-22 05:55:33,0.02,0.14,0.00,25.02,28.87,31.60,14.15,46.09,998.06,2031.73,3384.49,2947.08,3349.96,600.06,581.22,8.33,0000 0000 0000 0000 000000
2016-06-22 06:00:34,-0.01,0.14,0.00,25.00,28.87,31.59,14.11,46.19,998.06,2031.53,3384.32,2947.06,3349.95,599.99,581.24,8.38,0000 0000 0000 0000 000000
2016-06-22 06:05:35,0.00,0.14,0.00,24.99,28.87,31.59,14.15,46.23,998.06,2031.53,3384.25,2947.07,3349.97,599.84,581.14,8.43,0000 0000 0000 0000 000000
2016-06-22 06:10:36,0.02,0.14,0.00,24.98,28.86,31.58,14.08,46.02,998.07,2031.77,3384.25,2947.14,3349.98,599.88,581.10,8.48,0000 0000 0000 0000 000000
2016-06-22 06:15:38,-0.00,0.14,0.00,24.97,28.85,31.58,14.15,46.07,998.09,2031.80,3384.32,2947.17,3349.97,600.19,581.51,8.53,0000 0000 0000 0000 000000
2016-06-22 06:20:39,-0.00,0.14,0.00,24.96,28.85,31.56,14.18,46.00,998.09,2031.84,3384.53,2947.22,3349.99,599.89,581.23,8.58,0000 0000 0000 0000 000000
2016-06-22 06:25:40,0.00,0.14,0.00,24.93,28.85,31.57,14.21,46.24,998.12,2031.92,3384.73,2947.34,3349.99,600.56,581.97,8.64,0000 0000 0000 0000 000000
2016-06-22 06:30:42,-0.00,0.14,0.00,24.93,28.85,31.56,14.06,45.97,998.26,2031.93,3384.81,2947.39,3349.99,599.87,581.33,8.69,0000 0000 0000 0000 000000
2016-06-22 06:35:43,-0.00,0.14,0.00,24.91,28.84,31.55,14.18,46.06,998.44,2031.96,3384.91,2947.58,3349.99,600.28,581.90,8.74,0000 0000 0000 0000 000000
2016-06-22 06:40:44,0.00,0.14,0.00,24.90,28.83,31.54,14.11,45.96,998.55,2031.97,3384.64,2947.48,3350.00,600.24,582.03,8.79,0000 0000 0000 0000 000000
2016-06-22 06:45:46,-0.00,0.14,0.00,24.90,28.82,31.54,14.14,45.91,998.55,2031.98,3384.63,2947.53,3349.99,600.17,581.77,8.84,0000 0000 0000 0000 000000
2016-06-22 06:50:47,-0.00,0.14,0.00,24.87,28.82,31.55,14.15,45.96,998.55,2031.98,3384.79,2947.60,3349.99,600.06,581.77,8.89,0000 0000 0000 0000 000000
2016-06-22 06:55:48,-0.00,0.14,0.00,24.87,28.82,31.55,14.17,46.23,998.56,2031.99,3384.73,2947.69,3349.99,599.86,581.71,8.94,0000 0000 0000 0000 000000
2016-06-22 07:00:50,0.00,0.14,0.00,24.87,28.82,31.53,14.07,46.06,998.56,2031.98,3384.79,2947.72,3349.99,599.92,581.61,8.99,0000 0000 0000 0000 000000
2016-06-22 07:05:51,-0.00,0.14,0.00,24.85,28.82,31.51,14.07,46.24,998.57,2031.99,3384.80,2947.80,3349.99,599.64,581.54,9.04,0000 0000 0000 0000 000000
2016-06-22 07:10:52,-0.01,0.14,0.00,24.85,28.82,31.51,14.06,45.92,998.66,2031.99,3384.92,2947.85,3350.00,599.83,581.75,9.09,0000 0000 0000 0000 000000
2016-06-22 07:15:54,0.00,0.14,0.00,24.85,28.82,31.53,14.25,46.23,998.78,2031.99,3384.91,2947.82,3350.00,600.50,582.39,9.14,0000 0000 0000 0000 000000
2016-06-22 07:20:55,-0.00,0.14,0.00,24.82,28.82,31.52,14.16,46.21,998.97,2031.99,3384.93,2947.85,3350.00,599.94,581.92,9.19,0000 0000 0000 0000 000000
2016-06-22 07:25:56,0.00,0.14,0.00,24.82,28.80,31.52,14.21,46.38,999.02,2031.99,3384.94,2947.91,3350.00,600.43,582.38,9.24,0000 0000 0000 0000 000000
2016-06-22 07:30:57,-0.00,0.14,0.00,24.80,28.80,31.51,14.15,46.27,999.04,2031.99,3384.71,2947.92,3350.00,599.86,582.07,9.29,0000 0000 0000 0000 000000
2016-06-22 07:35:58,0.00,0.14,0.00,24.79,28.80,31.51,14.16,46.36,999.04,2031.99,3384.44,2947.92,3350.00,599.99,582.19,9.34,0000 0000 0000 0000 000000
2016-06-22 07:41:00,0.00,0.14,0.00,24.78,28.80,31.51,14.15,46.10,999.06,2031.99,3384.37,2947.91,3350.00,600.11,582.31,9.39,0000 0000 0000 0000 000000
2016-06-22 07:46:01,0.00,0.14,0.00,24.77,28.80,31.51,14.08,46.12,999.14,2031.99,3384.36,2947.88,3350.00,599.80,582.10,9.44,0000 0000 0000 0000 000000
2016-06-22 07:51:03,-0.00,0.14,0.00,24.77,28.80,31.50,14.15,45.99,999.37,2031.99,3384.44,2947.94,3350.00,600.07,582.60,9.49,0000 0000 0000 0000 000000
2016-06-22 07:56:04,-0.01,0.14,0.00,24.74,28.80,31.49,14.18,46.32,999.50,2031.99,3384.59,2947.96,3350.01,600.34,582.68,9.54,0000 0000 0000 0000 000000
2016-06-22 08:01:05,-0.00,0.14,0.00,24.74,28.80,31.50,14.20,46.29,999.42,2031.99,3384.73,2947.93,3350.00,600.12,582.54,9.59,0000 0000 0000 0000 000000
2016-06-22 08:06:06,-0.00,0.14,0.00,24.73,28.79,31.49,14.15,46.17,999.34,2031.99,3384.81,2947.97,3350.00,599.56,582.15,9.64,0000 0000 0000 0000 000000
2016-06-22 08:11:08,0.00,0.14,0.00,24.73,28.78,31.49,14.20,46.14,999.34,2031.99,3384.82,2947.97,3350.00,599.94,582.44,9.69,0000 0000 0000 0000 000000
2016-06-22 08:16:09,0.00,0.14,0.00,24.72,28.77,31.48,14.17,46.18,999.49,2031.99,3384.86,2947.98,3350.02,600.08,582.59,9.74,0000 0000 0000 0000 000000
2016-06-22 08:21:10,0.00,0.14,0.00,24.72,28.77,31.48,14.26,46.31,999.53,2032.00,3384.92,2948.00,3350.02,600.53,583.16,9.79,0000 0000 0000 0000 000000
2016-06-22 08:26:11,0.00,0.14,0.00,24.71,28.77,31.44,14.14,46.16,999.53,2032.00,3384.95,2947.99,3350.02,599.69,582.34,9.84,0000 0000 0000 0000 000000
2016-06-22 08:31:12,0.00,0.14,0.00,24.70,28.77,31.46,14.11,46.23,999.53,2032.00,3384.76,2948.00,3350.01,600.13,582.78,9.89,0000 0000 0000 0000 000000
2016-06-22 08:36:13,0.00,0.14,0.00,24.68,28.77,31.46,14.16,46.19,999.53,2032.00,3384.80,2948.00,3350.00,599.73,582.40,9.94,0000 0000 0000 0000 000000
2016-06-22 08:41:15,0.00,0.14,0.00,24.67,28.77,31.47,14.22,46.26,999.54,2032.00,3384.94,2948.00,3350.00,600.12,582.67,9.99,0000 0000 0000 0000 000000
2016-06-22 08:46:16,0.00,0.14,0.00,24.67,28.77,31.47,14.24,46.33,999.61,2032.00,3384.61,2947.99,3350.01,600.12,582.92,10.04,0000 0000 0000 0000 000000
2016-06-22 08:51:17,0.00,0.14,0.00,24.67,28.77,31.46,14.16,46.26,999.73,2032.02,3384.53,2947.99,3350.01,599.93,582.86,10.09,0000 0000 0000 0000 000000
2016-06-22 08:56:18,-0.00,0.14,0.00,24.66,28.77,31.45,14.24,46.25,999.99,2032.01,3384.47,2947.99,3350.01,600.15,583.16,10.14,0000 0000 0000 0000 000000
2016-06-22 09:01:20,0.06,0.14,0.00,24.64,28.77,31.46,14.12,46.27,1000.01,2032.00,3383.38,2947.19,3349.26,599.60,582.64,10.19,0000 0000 0000 0000 000000
2016-06-22 09:06:21,0.00,0.14,0.00,24.64,28.75,31.46,14.18,46.34,1000.02,2032.00,3382.99,2946.97,3348.99,599.79,582.98,10.24,0000 0000 0000 0000 000000
2016-06-22 09:11:22,0.00,0.14,0.00,24.64,28.75,31.46,14.27,46.31,1000.05,2032.00,3382.81,2946.90,3348.98,600.44,583.56,10.29,0000 0000 0000 0000 000000
2016-06-22 09:16:23,0.01,0.14,0.00,24.62,28.75,31.45,14.18,46.22,1000.17,2032.00,3382.18,2946.79,3348.93,600.32,583.50,10.34,0000 0000 0000 0000 000000
2016-06-22 09:21:25,0.02,0.14,0.00,24.61,28.75,31.45,14.12,46.17,1000.05,2032.01,3382.01,2946.58,3348.54,599.54,582.65,10.39,0000 0000 0000 0000 000000
2016-06-22 09:26:26,0.02,0.15,0.00,24.60,28.75,31.45,14.13,46.13,1000.06,2032.01,3381.75,2946.10,3348.04,599.96,583.06,10.44,0000 0000 0000 0000 000000
2016-06-22 09:31:28,0.01,0.15,0.00,24.59,28.74,31.45,14.20,46.28,1000.08,2032.03,3381.04,2946.00,3347.99,600.61,583.77,10.49,0000 0000 0000 0000 000000
2016-06-22 09:36:29,0.01,0.15,0.00,24.58,28.73,31.45,14.15,45.94,1000.25,2032.06,3380.97,2945.99,3347.98,600.25,583.56,10.54,0000 0000 0000 0000 000000
2016-06-22 09:41:31,0.05,0.15,0.00,24.56,28.72,31.44,14.21,46.30,1000.35,2032.04,3380.02,2945.36,3347.18,599.91,583.38,10.59,0000 0000 0000 0000 000000
2016-06-22 09:46:32,0.12,0.15,0.00,24.55,28.72,31.44,14.22,46.31,1000.47,2032.03,3377.75,2943.92,3345.29,599.87,583.43,10.64,0000 0000 0000 0000 000000
2016-06-22 09:51:33,0.25,0.17,0.00,24.57,28.72,31.43,14.23,46.30,1000.49,2032.05,3372.31,2940.72,3340.96,600.02,583.46,10.69,0000 0000 0000 0000 000000
2016-06-22 09:56:34,0.10,0.17,0.00,24.56,28.72,31.43,14.23,46.17,1000.49,2032.02,3369.12,2938.49,3338.15,599.93,583.47,10.74,0000 0000 0000 0000 000000
2016-06-22 10:01:35,-0.00,0.17,0.00,24.55,28.72,31.43,14.18,46.24,1000.39,2032.02,3369.00,2938.33,3338.00,599.92,583.40,10.79,0000 0000 0000 0000 000000
2016-06-22 10:06:36,0.07,0.18,0.00,24.54,28.72,31.42,14.20,46.27,1000.48,2032.02,3367.82,2937.59,3337.26,600.15,583.74,10.84,0000 0000 0000 0000 000000
2016-06-22 10:11:38,0.01,0.18,0.00,24.54,28.71,31.41,14.21,46.38,1000.51,2032.02,3366.99,2937.02,3336.24,599.99,583.68,10.89,0000 0000 0000 0000 000000
2016-06-22 10:16:39,0.00,0.18,0.00,24.54,28.70,31.41,14.26,46.56,1000.52,2032.03,3366.98,2937.00,3336.22,600.12,583.65,10.95,0000 0000 0000 0000 000000
2016-06-22 10:21:40,-0.00,0.18,0.00,24.53,28.70,31.42,14.12,46.02,1000.55,2032.03,3366.99,2937.01,3336.30,599.79,583.45,11.00,0000 0000 0000 0000 000000
2016-06-22 10:26:41,-0.00,0.18,0.00,24.52,28.70,31.41,14.21,46.24,1000.71,2032.04,3366.99,2937.02,3336.43,599.86,583.71,11.05,0000 0000 0000 0000 000000
2016-06-22 10:31:43,0.00,0.18,0.00,24.52,28.70,31.41,14.25,46.30,1000.91,2032.05,3366.97,2937.01,3336.35,600.28,583.99,11.10,0000 0000 0000 0000 000000
2016-06-22 10:36:44,0.00,0.18,0.00,24.51,28.70,31.40,14.18,46.25,1000.94,2032.07,3366.97,2937.02,3336.40,599.89,583.76,11.15,0000 0000 0000 0000 000000
2016-06-22 10:41:45,-0.00,0.18,0.00,24.50,28.70,31.39,14.27,46.26,1000.94,2032.07,3366.98,2937.02,3336.46,600.36,584.25,11.20,0000 0000 0000 0000 000000
2016-06-22 10:46:47,0.01,0.18,0.00,24.50,28.70,31.40,14.11,46.04,1000.98,2032.14,3366.99,2937.05,3336.71,599.71,583.82,11.25,0000 0000 0000 0000 000000
2016-06-22 10:51:48,-0.00,0.18,0.00,24.50,28.69,31.40,14.16,46.18,1000.99,2032.09,3366.95,2937.02,3336.63,599.45,583.51,11.30,0000 0000 0000 0000 000000
2016-06-22 10:56:49,0.01,0.18,0.00,24.49,28.69,31.40,14.29,46.40,1000.99,2032.13,3366.84,2937.04,3336.46,600.31,584.24,11.35,0000 0000 0000 0000 000000
2016-06-22 11:01:50,0.03,0.18,0.00,24.48,28.68,31.39,14.19,46.21,1001.02,2032.45,3366.85,2937.14,3336.67,599.59,583.65,11.40,0000 0000 0000 0000 000000
2016-06-22 11:06:52,-0.00,0.18,0.00,24.48,28.67,31.40,14.19,46.31,1001.23,2032.61,3366.80,2937.13,3336.69,600.36,584.43,11.45,0000 0000 0000 0000 000000
2016-06-22 11:11:53,0.01,0.18,0.00,24.46,28.67,31.40,14.32,46.53,1001.44,2032.57,3366.66,2937.04,3336.57,600.25,584.45,11.50,0000 0000 0000 0000 000000
2016-06-22 11:16:54,0.01,0.18,0.00,24.45,28.67,31.38,14.31,46.30,1001.47,2032.75,3366.91,2937.11,3336.76,600.61,584.89,11.55,0000 0000 0000 0000 000000
2016-06-22 11:21:55,-0.00,0.18,0.00,24.45,28.67,31.38,14.12,46.23,1001.48,2032.78,3366.95,2937.15,3336.82,599.24,583.64,11.60,0000 0000 0000 0000 000000
2016-06-22 11:26:56,0.01,0.18,0.00,24.44,28.66,31.38,14.18,46.23,1001.48,2032.88,3366.94,2937.17,3336.88,599.86,584.12,11.65,0000 0000 0000 0000 000000
2016-06-22 11:31:57,-0.00,0.18,0.00,24.45,28.65,31.37,14.20,46.36,1001.48,2032.83,3366.96,2937.11,3336.91,600.05,584.32,11.70,0000 0000 0000 0000 000000
2016-06-22 11:36:58,-0.00,0.18,0.00,24.45,28.65,31.37,14.19,46.33,1001.48,2032.89,3366.97,2937.20,3336.95,599.78,584.10,11.75,0000 0000 0000 0000 000000
2016-06-22 11:41:59,-0.00,0.18,0.00,24.46,28.65,31.36,14.16,46.16,1001.48,2032.86,3366.99,2937.15,3336.94,599.89,584.23,11.80,0000 0000 0000 0000 000000
2016-06-22 11:47:00,0.01,0.18,0.00,24.47,28.65,31.35,14.23,46.42,1001.48,2032.91,3366.92,2937.09,3336.91,600.24,584.76,11.85,0000 0000 0000 0000 000000
2016-06-22 11:52:01,0.00,0.18,0.00,24.47,28.65,31.35,14.19,46.13,1001.48,2032.94,3366.91,2937.09,3336.85,600.40,584.58,11.90,0000 0000 0000 0000 000000
2016-06-22 11:57:02,-0.00,0.18,0.00,24.50,28.65,31.33,14.18,46.31,1001.48,2032.94,3366.98,2937.06,3336.91,599.87,583.89,11.95,0000 0000 0000 0000 000000
2016-06-22 12:02:04,-0.00,0.18,0.00,24.51,28.65,31.33,14.24,46.35,1001.48,2032.90,3366.94,2937.05,3336.82,600.00,584.08,12.00,0000 0000 0000 0000 000000
2016-06-22 12:07:05,0.01,0.18,0.00,24.51,28.65,31.35,14.25,46.31,1001.48,2032.93,3366.94,2937.04,3336.66,600.07,584.18,12.05,0000 0000 0000 0000 000000
2016-06-22 12:12:06,0.00,0.18,0.00,24.52,28.65,31.35,14.19,46.26,1001.48,2032.94,3366.93,2937.03,3336.48,599.66,584.04,12.10,0000 0000 0000 0000 000000
2016-06-22 12:17:08,-0.02,0.18,0.00,24.52,28.66,31.34,14.16,46.32,1001.48,2032.82,3366.95,2937.00,3336.09,599.64,583.82,12.15,0000 0000 0000 0000 000000
2016-06-22 12:22:09,-0.01,0.18,0.00,24.53,28.67,31.36,14.20,46.27,1001.49,2032.65,3366.95,2937.00,3336.05,599.21,583.40,12.20,0000 0000 0000 0000 000000
2016-06-22 12:27:10,0.02,0.18,0.00,24.52,28.67,31.36,14.16,46.08,1001.49,2032.77,3366.89,2937.00,3336.03,600.10,584.19,12.25,0000 0000 0000 0000 000000
2016-06-22 12:32:11,-0.01,0.18,0.00,24.52,28.67,31.37,14.23,46.23,1001.49,2032.63,3366.42,2936.99,3336.00,599.68,583.82,12.30,0000 0000 0000 0000 000000
2016-06-22 12:37:13,-0.01,0.18,0.00,24.51,28.67,31.37,14.19,46.23,1001.49,2032.53,3366.12,2936.98,3336.00,600.06,584.24,12.35,0000 0000 0000 0000 000000
2016-06-22 12:42:14,0.00,0.18,0.00,24.51,28.67,31.37,14.16,46.17,1001.49,2032.62,3366.08,2936.98,3336.00,599.75,584.01,12.40,0000 0000 0000 0000 000000
2016-06-22 12:47:16,-0.01,0.18,0.00,24.47,28.67,31.39,14.18,46.05,1001.48,2032.43,3366.02,2936.92,3335.99,599.94,584.02,12.45,0000 0000 0000 0000 000000
2016-06-22 12:52:17,0.02,0.18,0.00,24.47,28.67,31.39,14.29,46.26,1001.49,2032.66,3366.01,2936.95,3335.99,599.81,584.06,12.50,0000 0000 0000 0000 000000
2016-06-22 12:57:18,-0.01,0.18,0.00,24.48,28.67,31.38,14.12,46.18,1001.49,2032.59,3366.00,2936.94,3335.99,599.68,583.93,12.55,0000 0000 0000 0000 000000
2016-06-22 13:02:20,-0.02,0.18,0.00,24.48,28.67,31.38,14.20,46.07,1001.48,2032.48,3366.00,2936.86,3335.99,600.07,584.27,12.60,0000 0000 0000 0000 000000